Location: Bh?mavarapp?du
(16.7041°N, 80.6518°E)
Time: 06:23:01
(UTC+00:00)

Ariane Rocket - Pass Details

Date: 21 April 2021
Orbit: 760 x 770 km, 98.7° (Epoch: 06 May)

Event Time Altitude Azimuth Distance (km) Brightness Sun altitude
Exits shadow 14:55:08 33° 15° (NNE) 1,263 4.1 -28.3°
Drops below altitude 10° 14:58:00 10° 359° (N) 2,288 5.7 -28.9°
Sets 15:00:20 0° 355° (N) 3,213 6.6 -29.4°
